Total_Precipitation_Accumulation
0.01 0.02 0.06 0.09 0.10 0.15 0.18 0.22 0.34 0.27 0.28 0.37 0.40 0.43 0.41 0.34 0.29 0.25 0.21 0.19 0.19 0.22 0.25 0.25 0.25 0.26 0.26 0.29 0.33 0.37 0.42 0.52 0.57 0.51 0.45 0.38 0.30 0.24 0.23 0.21 0.19 0.20 0.26 0.32
0.03 0.07 0.11 0.11 0.12 0.12 0.12 0.12 0.17 0.20 0.25 0.22 0.22 0.27 0.30 0.28 0.26 0.24 0.23 0.20 0.17 0.17 0.17 0.20 0.21 0.20 0.21 0.23 0.24 0.27 0.31 0.36 0.43 0.44 0.40 0.34 0.27 0.21 0.18 0.16 0.17 0.19 0.21 0.24
0.03 0.06 0.11 0.17 0.14 0.11 0.09 0.07 0.13 0.26 0.30 0.21 0.22 0.26 0.27 0.22 0.19 0.18 0.15 0.12 0.10 0.12 0.12 0.11 0.10 0.11 0.16 0.19 0.21 0.27 0.30 0.31 0.37 0.43 0.41 0.32 0.22 0.19 0.18 0.16 0.17 0.21 0.20 0.18
0.07 0.09 0.18 0.16 0.04 0.03 0.06 0.05 0.05 0.14 0.16 0.15 0.16 0.15 0.12 0.10 0.09 0.08 0.06 0.05 0.04 0.04 0.05 0.04 0.04 0.08 0.13 0.17 0.24 0.29 0.32 0.36 0.39 0.41 0.41 0.36 0.28 0.25 0.26 0.26 0.25 0.26 0.25 0.22
0.05 0.08 0.11 0.05 0.03 0.04 0.07 0.08 0.03 0.06 0.08 0.07 0.05 0.07 0.08 0.04 0.02 0.01 0.01 0.01 0.01 0.02 0.03 0.03 0.06 0.11 0.18 0.27 0.34 0.37 0.38 0.38 0.39 0.43 0.48 0.48 0.41 0.33 0.31 0.32 0.29 0.30 0.30 0.27
0.02 0.05 0.10 0.06 0.03 0.04 0.06 0.14 0.07 0.04 0.04 0.03 0.03 0.10 0.13 0.04 0.00 0.00 0.00 0.01 0.01 0.03 0.05 0.08 0.11 0.15 0.23 0.32 0.40 0.43 0.41 0.37 0.39 0.42 0.48 0.55 0.54 0.46 0.39 0.40 0.34 0.30 0.29 0.30
0.02 0.04 0.04 0.02 0.03 0.04 0.12 0.19 0.03 0.01 0.01 0.01 0.03 0.07 0.06 0.02 0.00 0.00 0.01 0.01 0.02 0.06 0.08 0.10 0.11 0.16 0.25 0.35 0.41 0.39 0.36 0.39 0.44 0.49 0.55 0.59 0.63 0.60 0.56 0.50 0.44 0.39 0.34 0.35
0.03 0.07 0.08 0.01 0.00 0.02 0.04 0.03 0.01 0.01 0.01 0.01 0.01 0.01 0.00 0.00 0.01 0.01 0.01 0.02 0.04 0.09 0.13 0.12 0.12 0.19 0.27 0.33 0.35 0.37 0.39 0.44 0.49 0.57 0.55 0.59 0.75 0.78 0.79 0.74 0.60 0.53 0.48 0.47
0.02 0.04 0.02 0.01 0.00 0.01 0.01 0.01 0.01 0.01 0.01 0.01 0.01 0.01 0.01 0.01 0.01 0.01 0.01 0.03 0.06 0.11 0.14 0.17 0.23 0.28 0.34 0.33 0.35 0.42 0.49 0.54 0.54 0.55 0.60 0.68 0.75 0.78 0.77 0.73 0.67 0.60 0.58 0.56
0.03 0.02 0.01 0.01 0.01 0.01 0.00 0.00 0.00 0.00 0.01 0.01 0.01 0.01 0.01 0.01 0.02 0.02 0.03 0.06 0.09 0.15 0.24 0.31 0.38 0.40 0.39 0.39 0.45 0.53 0.61 0.67 0.68 0.66 0.64 0.65 0.74 0.76 0.74 0.67 0.64 0.64 0.64 0.59
0.04 0.02 0.01 0.01 0.01 0.00 0.00 0.00 0.00 0.00 0.01 0.01 0.02 0.02 0.02 0.02 0.03 0.04 0.05 0.08 0.12 0.21 0.30 0.34 0.41 0.51 0.51 0.56 0.66 0.72 0.70 0.68 0.70 0.73 0.79 0.80 0.77 0.79 0.78 0.73 0.64 0.63 0.63 0.61
0.04 0.04 0.04 0.03 0.01 0.00 0.00 0.00 0.01 0.01 0.01 0.02 0.03 0.03 0.02 0.02 0.03 0.04 0.06 0.10 0.16 0.23 0.31 0.37 0.46 0.53 0.57 0.65 0.75 0.85 0.84 0.75 0.75 0.76 0.79 0.82 0.81 0.73 0.65 0.59 0.51 0.51 0.53 0.51
0.04 0.03 0.03 0.02 0.01 0.01 0.01 0.01 0.01 0.02 0.03 0.03 0.03 0.03 0.04 0.04 0.04 0.05 0.07 0.11 0.17 0.24 0.29 0.36 0.44 0.52 0.59 0.66 0.72 0.79 0.80 0.77 0.75 0.72 0.72 0.76 0.79 0.75 0.68 0.57 0.48 0.41 0.39 0.38
0.02 0.01 0.01 0.01 0.01 0.01 0.02 0.02 0.03 0.03 0.04 0.04 0.05 0.05 0.05 0.06 0.07 0.08 0.11 0.14 0.18 0.22 0.27 0.36 0.47 0.53 0.58 0.66 0.73 0.76 0.76 0.74 0.72 0.68 0.65 0.66 0.67 0.67 0.68 0.61 0.52 0.44 0.37 0.36
0.01 0.02 0.02 0.02 0.02 0.03 0.04 0.04 0.05 0.06 0.06 0.06 0.06 0.07 0.09 0.11 0.12 0.14 0.16 0.19 0.23 0.26 0.30 0.40 0.52 0.58 0.63 0.70 0.75 0.74 0.75 0.72 0.65 0.62 0.58 0.59 0.62 0.62 0.61 0.62 0.58 0.51 0.42 0.39
0.03 0.03 0.04 0.04 0.04 0.05 0.06 0.06 0.07 0.08 0.08 0.08 0.08 0.09 0.10 0.13 0.14 0.16 0.18 0.23 0.32 0.35 0.38 0.48 0.56 0.61 0.71 0.78 0.78 0.76 0.70 0.65 0.65 0.61 0.56 0.57 0.62 0.62 0.60 0.58 0.59 0.55 0.43 0.36
0.06 0.07 0.08 0.07 0.06 0.06 0.07 0.08 0.09 0.10 0.10 0.09 0.09 0.09 0.10 0.14 0.18 0.22 0.23 0.26 0.32 0.34 0.42 0.56 0.62 0.66 0.78 0.87 0.85 0.81 0.70 0.58 0.58 0.60 0.55 0.54 0.59 0.59 0.55 0.52 0.51 0.48 0.37 0.31
0.08 0.09 0.10 0.11 0.12 0.11 0.11 0.12 0.13 0.14 0.14 0.13 0.12 0.12 0.15 0.19 0.26 0.29 0.31 0.33 0.35 0.34 0.39 0.52 0.62 0.69 0.74 0.89 0.93 0.83 0.72 0.62 0.54 0.54 0.54 0.53 0.54 0.56 0.53 0.48 0.47 0.44 0.37 0.31
0.11 0.13 0.15 0.17 0.18 0.19 0.20 0.20 0.20 0.19 0.18 0.18 0.18 0.19 0.21 0.25 0.30 0.32 0.34 0.39 0.46 0.49 0.49 0.53 0.65 0.70 0.72 0.83 0.97 0.88 0.73 0.63 0.54 0.49 0.51 0.52 0.50 0.50 0.47 0.44 0.43 0.40 0.34 0.30
0.18 0.21 0.24 0.27 0.29 0.31 0.31 0.31 0.30 0.29 0.28 0.28 0.28 0.28 0.28 0.30 0.34 0.37 0.40 0.43 0.49 0.60 0.63 0.64 0.59 0.61 0.70 0.80 0.90 0.84 0.73 0.64 0.56 0.49 0.50 0.53 0.51 0.47 0.41 0.37 0.37 0.34 0.29 0.24
0.27 0.31 0.34 0.36 0.36 0.36 0.35 0.35 0.34 0.33 0.32 0.33 0.35 0.36 0.36 0.35 0.37 0.43 0.50 0.52 0.50 0.56 0.59 0.63 0.58 0.54 0.57 0.72 0.83 0.76 0.70 0.66 0.60 0.50 0.50 0.53 0.50 0.44 0.36 0.32 0.30 0.27 0.23 0.19
0.26 0.28 0.30 0.30 0.30 0.28 0.27 0.27 0.29 0.29 0.29 0.30 0.31 0.35 0.40 0.43 0.45 0.47 0.48 0.54 0.55 0.58 0.56 0.56 0.53 0.52 0.52 0.60 0.66 0.70 0.67 0.67 0.60 0.51 0.48 0.46 0.44 0.38 0.29 0.25 0.24 0.21 0.17 0.15
0.13 0.13 0.13 0.13 0.13 0.13 0.11 0.13 0.16 0.20 0.23 0.27 0.31 0.39 0.49 0.52 0.55 0.60 0.55 0.46 0.50 0.52 0.51 0.49 0.47 0.44 0.43 0.44 0.51 0.56 0.58 0.62 0.58 0.49 0.43 0.38 0.36 0.28 0.22 0.22 0.20 0.16 0.14 0.12
0.02 0.02 0.03 0.04 0.06 0.08 0.10 0.10 0.12 0.15 0.19 0.22 0.24 0.32 0.49 0.59 0.55 0.49 0.48 0.47 0.48 0.43 0.43 0.40 0.35 0.33 0.33 0.33 0.42 0.49 0.52 0.56 0.56 0.51 0.44 0.38 0.33 0.26 0.22 0.21 0.18 0.14 0.12 0.09
0.01 0.02 0.03 0.06 0.11 0.15 0.17 0.18 0.18 0.18 0.23 0.26 0.24 0.29 0.42 0.54 0.57 0.48 0.41 0.40 0.43 0.36 0.35 0.36 0.33 0.33 0.33 0.35 0.42 0.47 0.49 0.51 0.52 0.53 0.46 0.37 0.32 0.27 0.23 0.20 0.16 0.14 0.11 0.08
0.04 0.06 0.08 0.12 0.18 0.24 0.27 0.32 0.34 0.36 0.45 0.49 0.44 0.42 0.46 0.47 0.47 0.43 0.39 0.36 0.36 0.32 0.30 0.33 0.32 0.32 0.33 0.36 0.41 0.45 0.47 0.47 0.46 0.47 0.42 0.36 0.32 0.28 0.24 0.20 0.16 0.12 0.08 0.07
0.08 0.12 0.17 0.21 0.24 0.30 0.38 0.45 0.53 0.60 0.68 0.76 0.76 0.67 0.60 0.55 0.50 0.44 0.39 0.35 0.32 0.29 0.28 0.31 0.32 0.31 0.31 0.34 0.38 0.45 0.49 0.48 0.41 0.38 0.36 0.34 0.33 0.28 0.24 0.19 0.15 0.11 0.08 0.07